Regional Weather Roundup
Issued by NWS

Home | Current Version | Previous Version | Text Only | Print | Product List | Glossary Off
Versions: 1 2 3 4 5 6 7 8 9 10 11 12 13 14 15 16 17 18 19 20 21 22 23 24 25 26 27 28 29 30 31 32 33 34 35 36 37 38 39 40 41 42 43 44 45 46 47 48 49 50

000
ASUS43 KMPX 311810
RWRMN
WEATHER ROUNDUP FOR MINNESOTA
NATIONAL WEATHER SERVICE TWIN CITIES/CHANHASSEN MN
100 PM CDT THU JUL 31 2014


NOTE: "FAIR" INDICATES FEW OR NO CLOUDS BELOW 12,000 FEET WITH NO
SIGNIFICANT WEATHER AND/OR OBSTRUCTIONS TO VISIBILITY. N/A MEANS
CURRENT SKY AND/OR WEATHER CONDITIONS ARE NOT AVAILABLE.

MNZ060>063-068>070-311900-
   Twin Cities Metro

CITY           SKY/WX    TMP DP  RH WIND       PRES   REMARKS
TWIN CITIES    MOSUNNY   81  52  36 W7        30.02F
6HR MIN TEMP:  63; 6HR MAX TEMP:  82;

ST PAUL        SUNNY     79  50  36 W8        30.02F
CRYSTAL        SUNNY     80  52  37 W6        30.02F
BLAINE         PTSUNNY   79  55  44 W7        30.02F
LAKEVILLE      MOSUNNY   77  57  50 W7        30.04S
EDEN PRAIRIE   SUNNY     80  57  45 N8        30.02F
6HR MIN TEMP:  58; 6HR MAX TEMP:  81;

SOUTH ST PAUL  SUNNY     79  53  39 SW7       30.02F
LAKE ELMO      FAIR      77  55  47 W7        30.04S
$$
MNZ001>005-007-008-013>017-022>024-027-028-311900-
   Northwest Minnesota

CITY           SKY/WX    TMP DP  RH WIND       PRES   REMARKS
BEMIDJI        MOSUNNY   77  58  51 N9        30.02S
HALLOCK        SUNNY     79  59  50 NW6       30.01F
ROSEAU           N/A     79  57  47 NE6       30.02S
WARROAD        SUNNY     75  61  60 E5        30.02F
THIEF RVR FALL MOSUNNY   77  61  57 W8        30.03S
CROOKSTON      SUNNY     77  63  61 NW8       30.03F
FOSSTON        SUNNY     77  61  57 N3        30.04S
DETROIT LAKES  SUNNY     77  55  47 NW13      30.05F
MOORHEAD       SUNNY     81  59  47 NW5       30.03F
PARK RAPIDS    MOSUNNY   79  56  45 NW13      30.03F
$$
MNZ006-009>011-018-025>026-311900-
   North Central Minnesota

CITY           SKY/WX    TMP DP  RH WIND       PRES   REMARKS
BAUDETTE       SUNNY     77  54  44 NW9       30.02S
FLAG ISLAND    SUNNY     73  54  49 NE5       30.00S
INTL FALLS     SUNNY     75  55  49 N10       29.99F
6HR MIN TEMP:  50; 6HR MAX TEMP:  76;

WASKISH        SUNNY     75  66  73 CALM      30.01S
BIG FORK       SUNNY    N/A N/A N/A NW3       30.01F
LONGVILLE      SUNNY     77  61  57 NW7       30.02S
GRAND RAPIDS   MOSUNNY   75  57  53 W8        30.01S
CRANE LAKE     SUNNY     72  54  53 NW7       30.00S
ORR            SUNNY     75  52  43 NW5       29.97F
COOK           SUNNY     73  54  49 NW8       30.00S
$$
MNZ012-019>021-037-311900-
   Northeast Minnesota

CITY           SKY/WX    TMP DP  RH WIND       PRES   REMARKS
DULUTH         MOSUNNY   77  53  43 W12       29.99S
6HR MIN TEMP:  59; 6HR MAX TEMP:  78;

ELY            SUNNY     73  52  46 NW8       29.98F
HIBBING        MOSUNNY   79  53  40 N12G17    29.99F
EVELETH        SUNNY     77  52  41 NW8G16    30.00
DULUTH HARBOR  SUNNY     75  63  64 E6        29.97S
TWO HARBORS    SUNNY     75  54  46 W7        29.95F
SILVER BAY     SUNNY     75  55  50 NW5       29.95S
GRAND MARAIS     N/A     56  48  74 SW7       29.93S
G MARAIS ARPRT SUNNY     70  46  43 W10G17    29.98S
$$
MNZ029>031-032-039>041-046>048-054>057-064-311900-
   West Central Minnesota

CITY           SKY/WX    TMP DP  RH WIND       PRES   REMARKS
FERGUS FALLS   SUNNY     79  54  41 W5        30.04F
WHEATON        SUNNY     77  59  53 NW7       30.06F
MORRIS         SUNNY     79  61  53 N6        30.04F
ALEXANDRIA     SUNNY     77  55  46 VRB5      30.06F
ELBOW LAKE     FAIR      75  59  57 NW6       30.05F
WADENA         MOSUNNY   77  59  53 CALM      30.03F
GLENWOOD       SUNNY     77  54  44 NW5       30.06F
APPLETON       SUNNY     81  55  41 W6        30.05S
BENSON         SUNNY     79  61  53 NW7       30.05F
ORTONVILLE     SUNNY     79  55  44 N5        30.06S
MADISON        SUNNY     81  57  44 NW5       30.06F
WILLMAR        FAIR      79  54  41 W5        30.06F
$$
MNZ033>034-036-042>043-049>051-058-059-311900-
   Central Minnesota

CITY           SKY/WX    TMP DP  RH WIND       PRES   REMARKS
ST CLOUD       MOSUNNY   81  55  40 CALM      30.03F
6HR MIN TEMP:  57; 6HR MAX TEMP:  83;

SAUK CENTRE    FAIR      77  55  46 W3        30.05F
PAYNESVILLE    MOSUNNY   76  49  37 NW3       30.05F
AITKIN         SUNNY     81  63  54 NW8       30.00F
PINE RIVER     PTSUNNY   79  61  53 NW8       30.04F
BRAINERD       SUNNY     77  58  51 W8        30.02F
STAPLES        PTSUNNY   79  55  44 W6        30.03F
LONG PRAIRIE   FAIR      75  57  53 NW3       30.05F
LITTLE FALLS   SUNNY     77  54  44 W8        30.04S
LITCHFIELD     MOSUNNY   79  57  47 W3        30.05F
BUFFALO        MOSUNNY   78  54  43 SW3       30.04F
MAPLE LAKE     MOSUNNY   79  57  47 W7        30.05S
$$
MNZ037-044-045-052-053-311900-
   East Central Minnesota

CITY           SKY/WX    TMP DP  RH WIND       PRES   REMARKS
PRINCETON      MOSUNNY   81  59  47 NW5       30.02F
MORA           SUNNY     77  59  53 NW7       30.03S
CAMBRIDGE      SUNNY     81  61  50 W6        30.00F
RUSH CITY      SUNNY     79  61  53 SW6       30.01F
MOOSE LAKE     MOSUNNY   77  61  57 NW8       29.98F
HINCKLEY       MOCLDY    77  64  65 W7        30.00F
CLOQUET        MOSUNNY   77  55  47 W9        29.99F
MCGREGOR       MOSUNNY   79  61  53 NW8G16    30.00F
$$
MNZ071>073-080-081-089-090-097-098-311900-
   Southwest Minnesota

CITY           SKY/WX    TMP DP  RH WIND       PRES   REMARKS
MONTEVIDEO     MOSUNNY   81  59  47 N5        30.06F
GRANITE FALLS  SUNNY     78  56  46 SW3       30.07F
CANBY          MOSUNNY   79  52  38 NE5       30.07F
MARSHALL       SUNNY     79  52  38 NW10      30.06F
REDWOOD FALLS  PTSUNNY   80  52  37 NW9       30.06S
OLIVIA         MOSUNNY   77  54  44 W8        30.05F
PIPESTONE      MOSUNNY   77  55  47 CALM      30.08F
WINDOM         MOSUNNY   77  54  44 NW3       30.08F
WORTHINGTON    PTSUNNY   75  55  50 SW6       30.10S
JACKSON        MOSUNNY   77  54  44 N3        30.09S
TRACY          MOSUNNY   78  56  46 NE3       30.08S
SLAYTON        PTSUNNY   77  53  43 CALM      30.09F
$$
MNZ065>067-074>077-082>085-091>093-311900-
   South Central Minnesota

CITY           SKY/WX    TMP DP  RH WIND       PRES   REMARKS
MANKATO        MOSUNNY   79  54  41 W12       30.06S
NEW ULM        SUNNY     79  57  47 NW7       30.06S
ST JAMES       MOSUNNY   81  46  30 SW5       30.07F
FAIRMONT       PTSUNNY   81  52  36 W8        30.07F
GLENCOE        SUNNY     79  55  44 NW3       30.04F
FARIBAULT      MOSUNNY   81  52  36 W9        30.05F
OWATONNA       MOSUNNY   77  54  44 W6        30.06F
WASECA         MOSUNNY   77  54  44 W10       30.08S
ALBERT LEA     MOSUNNY   75  54  46 W6        30.07S
$$
MNZ078>079-086>088-094>096-311900-
   Southeast Minnesota

CITY           SKY/WX    TMP DP  RH WIND       PRES   REMARKS
ROCHESTER      MOSUNNY   77  56  48 W8        30.07F
6HR MIN TEMP:  58; 6HR MAX TEMP:  78;

RED WING       SUNNY     81  55  41 W13       30.02S
STANTON        MOSUNNY   79  55  43 W7        30.03S
DODGE CENTER   MOSUNNY   77  55  47 W10       30.07S
WINONA         SUNNY     79  57  47 NW12      30.03F
AUSTIN         MOSUNNY   75  52  43 W7        30.07S
PRESTON        MOSUNNY   76  60  58 W9G17     30.07F
$$
ABBREVIATIONS USED IN REMARKS
   TC - TEMPERATURES IN CELSIUS
  WCI - WIND CHILL INDEX
   HX - HEAT INDEX
  VSB - VISIBILITY
$$



USA.gov is the U.S. government's official web portal to all federal, state and local government web resources and services.